Weather History for Kolkata, India

Change the Weather History Date:

Wednesday, September 18, 2013

  Actual Average Record
Temperature  
Mean Temperature 84 °F -  
Max Temperature 91 °F 88 °F 96 °F (2014)
Min Temperature 78 °F 78 °F 64 °F (2001)
Cooling Degree Days 20    
Growing Degree Days 34 (Base 50)    
Moisture  
Dew Point 79 °F    
Average Humidity 88    
Maximum Humidity 94    
Minimum Humidity 64    
Precipitation  
Precipitation 0.51 in - - ()
Sea Level Pressure  
Sea Level Pressure 29.53 in    
Wind  
Wind Speed 2 mph ()    
Max Wind Speed 9 mph    
Max Gust Speed -    
Visibility 1.6 miles    
Events Rain , Thunderstorm    
Averages and records for this station are not official NWS values.
T = Trace of Precipitation, MM = Missing Value Source: Averaged Metar Reports

Daily Weather History Graph

Daily Weather History Graph

Search for Another Location

Airport:

Trip Planner

Search our weather history database for the weather conditions in past years. The results will help you decide how hot, cold, wet, or windy it might be!

Date:

Astronomy

Sep. 18, 2013 Rise Set
Actual Time 5:23 AM IST 5:36 PM IST
Civil Twilight 5:01 AM IST 5:59 PM IST
Nautical Twilight 4:35 AM IST 6:25 PM IST
Astronomical Twilight 4:08 AM IST 6:51 PM IST
Moon 4:40 PM IST (9/18) 3:58 AM IST (9/18)
Length of Visible Light 12h 57m
Length of Day
12h 13m
Waxing Gibbous, 98% of the Moon is Illuminated
Sep 18
Waxing Gibbous
Sep 19
Full
Sep 27
Last Quarter
Oct 5
New
Oct 12
First Quarter

Hourly Weather History & Observations

Time (IST) Temp. Heat Index Dew Point Humidity Pressure Visibility Wind Dir Wind Speed Gust Speed Precip Events Conditions
12:20 AM 80.6 °F 87.1 °F 77.0 °F 89% 29.56 in 1.7 mi Calm Calm - N/A   Haze
12:50 AM 80.6 °F 87.1 °F 77.0 °F 89% 29.56 in 1.6 mi Calm Calm - N/A   Haze
1:20 AM 80.6 °F 87.1 °F 77.0 °F 89% 29.53 in 1.6 mi Calm Calm - N/A   Haze
1:50 AM 80.6 °F 87.1 °F 77.0 °F 89% 29.53 in 1.6 mi Calm Calm - N/A   Haze
2:20 AM 80.6 °F 87.1 °F 77.0 °F 89% 29.53 in 1.6 mi Calm Calm - N/A   Haze
2:30 AM 80 °F - 78 °F 93% 29.55 in 1 mi Calm Calm - -   Haze
2:50 AM 80.6 °F 87.1 °F 77.0 °F 89% 29.53 in 1.6 mi Calm Calm - N/A   Haze
3:20 AM 78.8 °F - 77.0 °F 94% 29.53 in 1.6 mi North 4.6 mph - N/A   Haze
3:50 AM 78.8 °F - 77.0 °F 94% 29.53 in 1.6 mi North 3.5 mph - N/A   Haze
4:20 AM 78.8 °F - 77.0 °F 94% 29.53 in 1.6 mi Calm Calm - N/A   Haze
4:50 AM 78.8 °F - 77.0 °F 94% 29.53 in 1.6 mi Calm Calm - N/A   Haze
5:20 AM 78.8 °F - 77.0 °F 94% 29.53 in 1.2 mi Calm Calm - N/A   Scattered Clouds
5:30 AM 80 °F - 78 °F 93% 29.56 in 1 mi Calm Calm - -   Haze
5:50 AM 78.8 °F - 77.0 °F 94% 29.56 in 1.1 mi Calm Calm - N/A   Scattered Clouds
6:20 AM 80.6 °F 88.1 °F 78.8 °F 94% 29.56 in 0.9 mi Calm Calm - N/A   Scattered Clouds
6:50 AM 80.6 °F 88.1 °F 78.8 °F 94% 29.56 in 1.1 mi Calm Calm - N/A   Scattered Clouds
7:20 AM 82.4 °F 92.4 °F 78.8 °F 89% 29.59 in 1.2 mi North 4.6 mph - N/A   Scattered Clouds
7:50 AM 82.4 °F 94.0 °F 80.6 °F 94% 29.59 in 1.2 mi NE 3.5 mph - N/A   Scattered Clouds
8:20 AM 82.4 °F 94.0 °F 80.6 °F 94% 29.62 in 1.2 mi NE 3.5 mph - N/A   Scattered Clouds
8:30 AM 83 °F - 80 °F 90% 29.63 in 1 mi Calm Calm - -   Haze
8:50 AM 84.2 °F 98.3 °F 80.6 °F 89% 29.59 in 1.4 mi Calm Calm - N/A   Haze
9:20 AM 84.2 °F 98.3 °F 80.6 °F 89% 29.59 in 1.7 mi NNE 4.6 mph - N/A   Haze
10:20 AM 87.8 °F 104.9 °F 80.6 °F 79% 29.59 in 2.2 mi East 5.8 mph - N/A   Haze
10:50 AM 87.8 °F 104.9 °F 80.6 °F 79% 29.59 in 2.5 mi NE 5.8 mph - N/A   Haze
11:20 AM 87.8 °F 104.9 °F 80.6 °F 79% 29.56 in 2.8 mi East 6.9 mph - N/A   Haze
11:30 AM 90 °F - 79 °F 64% 29.59 in 1 mi NE 2.3 mph - -   Haze
11:50 AM 87.8 °F 104.9 °F 80.6 °F 79% 29.56 in 2.8 mi East 5.8 mph - N/A   Haze
12:20 PM 89.6 °F 104.7 °F 78.8 °F 70% 29.53 in 2.8 mi ESE 4.6 mph - N/A   Haze
1:20 PM 84.2 °F 98.3 °F 80.6 °F 89% 29.50 in 1.9 mi SE 5.8 mph - N/A Rain , Thunderstorm Light Thunderstorms and Rain
2:20 PM 87.8 °F 104.9 °F 80.6 °F 79% 29.47 in 2.5 mi East 6.9 mph - N/A   Haze
2:30 PM 87 °F - 81 °F 77% 29.49 in 1 mi East 4.6 mph - - Rain Light Rain
2:50 PM 86.0 °F 101.9 °F 80.6 °F 84% 29.47 in 2.5 mi East 6.9 mph - N/A   Haze
3:20 PM 87.8 °F 104.9 °F 80.6 °F 79% 29.47 in 2.5 mi East 5.8 mph - N/A   Haze
3:50 PM 87.8 °F 104.9 °F 80.6 °F 79% 29.47 in 2.5 mi NNE 6.9 mph - N/A   Haze
4:20 PM 86.0 °F 104.7 °F 82.4 °F 89% 29.47 in - North 5.8 mph - N/A Rain Light Rain
4:50 PM 84.2 °F 100.6 °F 82.4 °F 94% 29.47 in - SE 3.5 mph - N/A Rain Light Rain
5:20 PM 82.4 °F 94.0 °F 80.6 °F 94% 29.47 in - SE 3.5 mph - N/A   Haze
5:30 PM 84 °F - 81 °F 87% 29.49 in 1 mi Calm Calm - - Rain Light Rain
5:50 PM 82.4 °F 94.0 °F 80.6 °F 94% 29.47 in - Calm Calm - N/A Rain Light Rain
6:20 PM 82.4 °F 94.0 °F 80.6 °F 94% 29.50 in - ESE 9.2 mph - N/A Rain Light Rain
6:50 PM 80.6 °F 88.1 °F 78.8 °F 94% 29.50 in - ENE 3.5 mph - N/A   Haze
7:20 PM 80.6 °F 87.1 °F 77.0 °F 89% 29.50 in - NE 3.5 mph - N/A   Haze
7:50 PM 80.6 °F 87.1 °F 77.0 °F 89% 29.53 in - NNE 4.6 mph - N/A   Haze
8:20 PM 80.6 °F 87.1 °F 77.0 °F 89% 29.53 in - NE 4.6 mph - N/A   Haze
8:30 PM 81 °F - 79 °F 92% 29.57 in 1 mi Calm Calm - -   Haze
8:50 PM 80.6 °F 87.1 °F 77.0 °F 89% 29.53 in - NNE 5.8 mph - N/A   Haze
9:20 PM 80.6 °F 87.1 °F 77.0 °F 89% 29.53 in - NE 5.8 mph - N/A   Haze
9:50 PM 80.6 °F 87.1 °F 77.0 °F 89% 29.53 in - NNE 8.1 mph - N/A   Haze
10:20 PM 80.6 °F 87.1 °F 77.0 °F 89% 29.53 in - NE 6.9 mph - N/A   Haze
10:50 PM 80.6 °F 87.1 °F 77.0 °F 89% 29.53 in - NE 5.8 mph - N/A   Haze
11:20 PM 80.6 °F 87.1 °F 77.0 °F 89% 29.53 in - NE 6.9 mph - N/A   Haze
11:30 PM 81 °F - 79 °F 92% 29.54 in 1 mi East 2.3 mph - -   Haze
11:50 PM 80.6 °F 87.1 °F 77.0 °F 89% 29.50 in - NE 8.1 mph - N/A   Haze